Time,TemperatureF,DewpointF,PressureIn,WindDirection,WindDirectionDegrees,WindSpeedMPH,WindSpeedGustMPH,Humidity,HourlyPrecipIn,Conditions,Clouds,dailyrainin,SoftwareType,DateUTC
2013-05-07 00:14:00,46.7,46.0,30.16,ESE,121,1.0,1.0,96,0.00,,,0.00,weatherlink.com 1.10,2013-05-07 04:14:00,
2013-05-07 00:29:00,47.0,46.0,30.16,SSE,153,0.0,1.0,96,0.00,,,0.00,weatherlink.com 1.10,2013-05-07 04:29:00,
2013-05-07 00:44:00,47.3,47.0,30.16,SE,131,0.0,1.0,97,0.00,,,0.00,weatherlink.com 1.10,2013-05-07 04:44:00,
2013-05-07 00:59:00,47.5,47.0,30.16,SE,131,0.0,1.0,97,0.00,,,0.00,weatherlink.com 1.10,2013-05-07 04:59:00,
2013-05-07 01:21:00,47.3,46.0,30.15,ESE,122,0.0,1.0,96,0.00,,,0.00,weatherlink.com 1.10,2013-05-07 05:21:00,
2013-05-07 01:29:00,47.2,46.0,30.15,SSE,149,0.0,2.0,96,0.00,,,0.00,weatherlink.com 1.10,2013-05-07 05:29:00,
2013-05-07 01:44:00,47.1,46.0,30.15,ESE,120,0.0,0.0,97,0.00,,,0.00,weatherlink.com 1.10,2013-05-07 05:44:00,
2013-05-07 01:59:00,47.1,46.0,30.15,ESE,120,0.0,1.0,97,0.00,,,0.00,weatherlink.com 1.10,2013-05-07 05:59:00,
2013-05-07 02:14:00,47.5,47.0,30.14,ESE,120,0.0,1.0,97,0.00,,,0.00,weatherlink.com 1.10,2013-05-07 06:14:00,
2013-05-07 02:29:00,47.6,47.0,30.14,SE,129,0.0,1.0,97,0.00,,,0.00,weatherlink.com 1.10,2013-05-07 06:29:00,
2013-05-07 02:45:00,47.5,47.0,30.14,ESE,117,0.0,1.0,97,0.00,,,0.00,weatherlink.com 1.10,2013-05-07 06:45:00,
2013-05-07 03:00:00,47.4,47.0,30.14,SE,127,0.0,1.0,97,0.00,,,0.00,weatherlink.com 1.10,2013-05-07 07:00:00,
2013-05-07 03:15:00,47.4,47.0,30.14,SE,127,0.0,1.0,97,0.00,,,0.00,weatherlink.com 1.10,2013-05-07 07:15:00,
2013-05-07 03:30:00,47.4,47.0,30.14,SE,127,0.0,0.0,97,0.00,,,0.00,weatherlink.com 1.10,2013-05-07 07:30:00,
2013-05-07 03:45:00,47.3,47.0,30.14,SE,136,0.0,1.0,97,0.00,,,0.00,weatherlink.com 1.10,2013-05-07 07:45:00,
2013-05-07 04:00:00,47.1,46.0,30.14,SE,136,0.0,1.0,97,0.00,,,0.00,weatherlink.com 1.10,2013-05-07 08:00:00,
2013-05-07 04:15:00,46.9,46.0,30.14,SE,139,0.0,1.0,97,0.00,,,0.00,weatherlink.com 1.10,2013-05-07 08:15:00,
2013-05-07 04:30:00,46.7,46.0,30.14,SE,136,0.0,1.0,97,0.00,,,0.00,weatherlink.com 1.10,2013-05-07 08:30:00,
2013-05-07 04:45:00,46.5,46.0,30.13,SE,133,0.0,1.0,97,0.00,,,0.00,weatherlink.com 1.10,2013-05-07 08:45:00,
2013-05-07 05:00:00,46.4,46.0,30.13,SE,139,0.0,1.0,97,0.00,,,0.00,weatherlink.com 1.10,2013-05-07 09:00:00,
2013-05-07 05:15:00,46.2,45.0,30.13,SSE,148,0.0,1.0,97,0.00,,,0.00,weatherlink.com 1.10,2013-05-07 09:15:00,
2013-05-07 05:30:00,45.2,45.0,30.13,SE,131,0.0,1.0,100,0.00,,,0.00,weatherlink.com 1.10,2013-05-07 09:30:00,
2013-05-07 05:45:00,-999.0,-99.9,30.14,North,-999,-999.0,-999.0,-999,0.00,,,0.00,weatherlink.com 1.10,2013-05-07 09:45:00,
2013-05-07 06:00:00,-999.0,-99.9,30.13,North,-999,-999.0,-999.0,-999,0.00,,,0.00,weatherlink.com 1.10,2013-05-07 10:00:00,
2013-05-07 06:15:00,-999.0,-99.9,30.14,North,-999,-999.0,-999.0,-999,0.00,,,0.00,weatherlink.com 1.10,2013-05-07 10:15:00,
2013-05-07 06:30:00,-999.0,-99.9,30.14,North,-999,-999.0,-999.0,-999,0.00,,,0.00,weatherlink.com 1.10,2013-05-07 10:30:00,
2013-05-07 06:45:00,-999.0,-99.9,30.14,North,-999,-999.0,-999.0,-999,0.00,,,0.00,weatherlink.com 1.10,2013-05-07 10:45:00,
2013-05-07 07:00:00,-999.0,-99.9,30.14,North,-999,-999.0,-999.0,-999,0.00,,,0.00,weatherlink.com 1.10,2013-05-07 11:00:00,
2013-05-07 07:15:00,-999.0,-99.9,30.14,North,-999,-999.0,-999.0,-999,0.00,,,0.00,weatherlink.com 1.10,2013-05-07 11:15:00,
2013-05-07 07:30:00,-999.0,-99.9,30.14,North,-999,-999.0,-999.0,-999,0.00,,,0.00,weatherlink.com 1.10,2013-05-07 11:30:00,
2013-05-07 07:45:00,51.2,51.0,30.14,ESE,121,0.0,2.0,98,0.00,,,0.00,weatherlink.com 1.10,2013-05-07 11:45:00,
2013-05-07 08:00:00,52.6,52.0,30.14,SE,136,1.0,3.0,98,0.00,,,0.00,weatherlink.com 1.10,2013-05-07 12:00:00,
2013-05-07 08:15:00,52.6,52.0,30.15,SE,141,2.0,2.0,97,0.00,,,0.00,weatherlink.com 1.10,2013-05-07 12:15:00,
2013-05-07 08:30:00,54.0,53.0,30.15,SE,127,0.0,2.0,97,0.00,,,0.00,weatherlink.com 1.10,2013-05-07 12:30:00,
2013-05-07 08:45:00,54.7,54.0,30.15,SE,129,1.0,2.0,96,0.00,,,0.00,weatherlink.com 1.10,2013-05-07 12:45:00,
2013-05-07 09:00:00,54.5,53.0,30.16,SE,126,1.0,2.0,94,0.00,,,0.00,weatherlink.com 1.10,2013-05-07 13:00:00,
2013-05-07 09:15:00,55.1,54.0,30.16,ESE,109,1.0,3.0,94,0.00,,,0.00,weatherlink.com 1.10,2013-05-07 13:15:00,
2013-05-07 09:30:00,55.3,53.0,30.17,SSE,159,2.0,3.0,93,0.00,,,0.00,weatherlink.com 1.10,2013-05-07 13:30:00,
2013-05-07 09:45:00,55.6,53.0,30.17,SE,126,1.0,2.0,92,0.00,,,0.00,weatherlink.com 1.10,2013-05-07 13:45:00,
2013-05-07 10:00:00,55.6,54.0,30.17,SE,132,1.0,3.0,93,0.00,,,0.00,weatherlink.com 1.10,2013-05-07 14:00:00,
2013-05-07 10:15:00,56.1,54.0,30.16,ESE,123,1.0,3.0,93,0.00,,,0.00,weatherlink.com 1.10,2013-05-07 14:15:00,
2013-05-07 10:30:00,57.6,55.0,30.17,SSE,162,1.0,2.0,92,0.00,,,0.00,weatherlink.com 1.10,2013-05-07 14:30:00,
2013-05-07 10:45:00,58.4,56.0,30.17,SE,139,0.0,4.0,91,0.00,,,0.00,weatherlink.com 1.10,2013-05-07 14:45:00,
2013-05-07 11:00:00,59.1,55.0,30.17,SE,139,1.0,3.0,87,0.00,,,0.00,weatherlink.com 1.10,2013-05-07 15:00:00,
2013-05-07 11:15:00,59.0,55.0,30.17,SSE,147,2.0,2.0,87,0.00,,,0.00,weatherlink.com 1.10,2013-05-07 15:15:00,
2013-05-07 11:30:00,58.5,54.0,30.17,SSE,149,1.0,2.0,86,0.00,,,0.00,weatherlink.com 1.10,2013-05-07 15:30:00,
2013-05-07 11:45:00,58.2,54.0,30.16,SE,127,0.0,3.0,87,0.00,,,0.00,weatherlink.com 1.10,2013-05-07 15:45:00,
2013-05-07 12:00:00,59.5,56.0,30.16,South,179,3.0,4.0,87,0.00,,,0.00,weatherlink.com 1.10,2013-05-07 16:00:00,
2013-05-07 12:16:00,61.8,57.0,30.15,SE,128,1.0,4.0,85,0.00,,,0.00,weatherlink.com 1.10,2013-05-07 16:16:00,
2013-05-07 12:31:00,62.3,57.0,30.16,SSE,150,1.0,5.0,82,0.00,,,0.00,weatherlink.com 1.10,2013-05-07 16:31:00,
2013-05-07 12:46:00,62.5,57.0,30.15,SSE,147,1.0,3.0,81,0.00,,,0.00,weatherlink.com 1.10,2013-05-07 16:46:00,
2013-05-07 13:01:00,62.3,56.0,30.15,SE,143,2.0,3.0,80,0.00,,,0.00,weatherlink.com 1.10,2013-05-07 17:01:00,
2013-05-07 13:16:00,60.7,55.0,30.16,SSE,155,1.0,3.0,81,0.00,,,0.00,weatherlink.com 1.10,2013-05-07 17:16:00,
2013-05-07 13:31:00,59.9,55.0,30.14,SSE,150,1.0,3.0,83,0.00,,,0.00,weatherlink.com 1.10,2013-05-07 17:31:00,
2013-05-07 13:46:00,61.1,56.0,30.14,SE,146,2.0,4.0,84,0.00,,,0.00,weatherlink.com 1.10,2013-05-07 17:46:00,
2013-05-07 14:01:00,61.0,56.0,30.15,SE,145,2.0,3.0,83,0.00,,,0.00,weatherlink.com 1.10,2013-05-07 18:01:00,
2013-05-07 14:16:00,61.5,56.0,30.14,SE,131,1.0,3.0,82,0.00,,,0.00,weatherlink.com 1.10,2013-05-07 18:16:00,
2013-05-07 14:31:00,61.3,55.0,30.14,SSE,158,1.0,3.0,81,0.00,,,0.00,weatherlink.com 1.10,2013-05-07 18:31:00,
2013-05-07 14:46:00,61.4,56.0,30.14,SSE,149,2.0,3.0,82,0.00,,,0.00,weatherlink.com 1.10,2013-05-07 18:46:00,
2013-05-07 15:01:00,60.9,56.0,30.14,SSE,149,1.0,3.0,83,0.00,,,0.00,weatherlink.com 1.10,2013-05-07 19:01:00,
2013-05-07 15:16:00,61.5,56.0,30.13,SE,138,3.0,3.0,83,0.00,,,0.00,weatherlink.com 1.10,2013-05-07 19:16:00,
2013-05-07 15:31:00,60.7,55.0,30.13,SE,140,0.0,3.0,81,0.00,,,0.00,weatherlink.com 1.10,2013-05-07 19:31:00,
2013-05-07 15:46:00,60.1,55.0,30.13,SSE,155,1.0,3.0,82,0.00,,,0.00,weatherlink.com 1.10,2013-05-07 19:46:00,
2013-05-07 16:01:00,60.9,55.0,30.12,SE,129,0.0,3.0,82,0.00,,,0.00,weatherlink.com 1.10,2013-05-07 20:01:00,
2013-05-07 16:16:00,60.9,55.0,30.12,ESE,121,0.0,2.0,81,0.00,,,0.00,weatherlink.com 1.10,2013-05-07 20:16:00,
2013-05-07 16:31:00,60.1,54.0,30.12,SSE,165,2.0,2.0,79,0.00,,,0.00,weatherlink.com 1.10,2013-05-07 20:31:00,
2013-05-07 16:46:00,60.9,55.0,30.12,SSE,154,0.0,2.0,82,0.00,,,0.00,weatherlink.com 1.10,2013-05-07 20:46:00,
2013-05-07 17:01:00,61.7,55.0,30.12,SSE,147,0.0,2.0,79,0.00,,,0.00,weatherlink.com 1.10,2013-05-07 21:01:00,
2013-05-07 17:16:00,60.9,54.0,30.12,SE,141,1.0,3.0,79,0.00,,,0.00,weatherlink.com 1.10,2013-05-07 21:16:00,
2013-05-07 17:31:00,58.4,52.0,30.12,SE,143,0.0,2.0,79,0.00,,,0.00,weatherlink.com 1.10,2013-05-07 21:31:00,
2013-05-07 17:46:00,56.7,53.0,30.12,SE,133,0.0,3.0,86,0.00,,,0.00,weatherlink.com 1.10,2013-05-07 21:46:00,
2013-05-07 18:01:00,56.3,53.0,30.11,SSE,152,0.0,2.0,88,0.00,,,0.00,weatherlink.com 1.10,2013-05-07 22:01:00,
2013-05-07 18:16:00,56.4,53.0,30.11,SE,126,1.0,2.0,88,0.00,,,0.00,weatherlink.com 1.10,2013-05-07 22:16:00,
2013-05-07 18:31:00,55.8,53.0,30.11,SE,143,0.0,2.0,89,0.00,,,0.00,weatherlink.com 1.10,2013-05-07 22:31:00,
2013-05-07 18:46:00,55.3,53.0,30.12,ESE,115,1.0,2.0,90,0.00,,,0.00,weatherlink.com 1.10,2013-05-07 22:46:00,
2013-05-07 19:01:00,54.7,52.0,30.12,SE,129,1.0,2.0,90,0.00,,,0.00,weatherlink.com 1.10,2013-05-07 23:01:00,
2013-05-07 19:16:00,54.2,52.0,30.12,SE,131,1.0,2.0,91,0.00,,,0.00,weatherlink.com 1.10,2013-05-07 23:16:00,
2013-05-07 19:31:00,53.1,51.0,30.12,SE,126,1.0,3.0,91,0.00,,,0.00,weatherlink.com 1.10,2013-05-07 23:31:00,
2013-05-07 19:46:00,52.2,50.0,30.13,SE,128,0.0,2.0,93,0.00,,,0.00,weatherlink.com 1.10,2013-05-07 23:46:00,
2013-05-07 20:01:00,52.2,51.0,30.13,ESE,122,2.0,3.0,94,0.00,,,0.00,weatherlink.com 1.10,2013-05-08 00:01:00,
2013-05-07 20:16:00,52.6,51.0,30.13,ESE,122,1.0,2.0,95,0.00,,,0.00,weatherlink.com 1.10,2013-05-08 00:16:00,
2013-05-07 20:31:00,53.2,52.0,30.14,ESE,117,1.0,3.0,96,0.00,,,0.00,weatherlink.com 1.10,2013-05-08 00:31:00,
2013-05-07 20:46:00,53.2,52.0,30.14,ESE,111,2.0,3.0,95,0.00,,,0.00,weatherlink.com 1.10,2013-05-08 00:46:00,
2013-05-07 21:01:00,53.2,52.0,30.14,SE,129,1.0,3.0,96,0.00,,,0.00,weatherlink.com 1.10,2013-05-08 01:01:00,
2013-05-07 21:16:00,53.4,52.0,30.14,SE,144,3.0,3.0,96,0.00,,,0.00,weatherlink.com 1.10,2013-05-08 01:16:00,
2013-05-07 21:31:00,53.7,53.0,30.15,ESE,113,1.0,3.0,96,0.00,,,0.00,weatherlink.com 1.10,2013-05-08 01:31:00,
2013-05-07 21:46:00,53.8,53.0,30.15,ESE,109,2.0,3.0,96,0.00,,,0.00,weatherlink.com 1.10,2013-05-08 01:46:00,
2013-05-07 22:01:00,53.9,53.0,30.15,ESE,108,2.0,2.0,97,0.00,,,0.00,weatherlink.com 1.10,2013-05-08 02:01:00,
2013-05-07 22:18:00,54.1,53.0,30.15,ESE,117,2.0,3.0,97,0.00,,,0.00,weatherlink.com 1.10,2013-05-08 02:18:00,
2013-05-07 22:31:00,54.1,53.0,30.15,East,86,2.0,3.0,97,0.00,,,0.00,weatherlink.com 1.10,2013-05-08 02:31:00,
2013-05-07 22:46:00,54.3,54.0,30.15,ESE,117,1.0,3.0,97,0.00,,,0.00,weatherlink.com 1.10,2013-05-08 02:46:00,
2013-05-07 23:01:00,54.5,54.0,30.15,ESE,109,1.0,3.0,97,0.00,,,0.00,weatherlink.com 1.10,2013-05-08 03:01:00,
2013-05-07 23:16:00,54.5,54.0,30.15,SE,131,1.0,2.0,97,0.00,,,0.00,weatherlink.com 1.10,2013-05-08 03:16:00,
2013-05-07 23:31:00,54.6,54.0,30.15,ESE,115,1.0,3.0,97,0.00,,,0.00,weatherlink.com 1.10,2013-05-08 03:31:00,
2013-05-07 23:46:00,54.6,54.0,30.14,ESE,117,1.0,3.0,97,0.00,,,0.00,weatherlink.com 1.10,2013-05-08 03:46:00,